Regional Weather Roundup
Issued by NWS

Home | Current Version | Previous Version | Graphics & Text | Print | Product List | Glossary On
Versions: 1 2 3 4 5 6 7 8 9 10 11 12 13 14 15 16 17 18 19 20 21 22 23 24 25 26 27 28 29 30 31 32 33 34 35 36 37 38 39 40 41 42 43 44 45 46 47 48 49 50
000
ASUS43 KFSD 201002
RWRSD

WEATHER ROUNDUP FOR SOUTH DAKOTA
NATIONAL WEATHER SERVICE SIOUX FALLS SD
500 AM CDT THU JUL 20 2017

NOTE: "FAIR" INDICATES FEW OR NO CLOUDS BELOW 12,000 FEET WITH NO
SIGNIFICANT WEATHER AND/OR OBSTRUCTIONS TO VISIBILITY.


SDZ001>005-009-010-012>017-201100-
NORTHWEST AND NORTH CENTRAL SOUTH DAKOTA

CITY           SKY/WX    TMP DP  RH WIND       PRES   REMARKS
BUFFALO          N/A     67  61  81 S10       29.99S
FAITH            N/A     64  64 100 S12       30.04S
MOBRIDGE       CLOUDY    62  60  93 SE3       29.98S FOG
$$

SDZ012>016-024>037-041>051-057-063-072>074-201100-
SOUTHWEST AND SOUTH CENTRAL SOUTH DAKOTA

CITY           SKY/WX    TMP DP  RH WIND       PRES   REMARKS
RAPID CTY ARPT CLOUDY    68  63  84 CALM      30.09R
PIERRE         CLOUDY    72  69  90 SE7       30.00S
CUSTER         CLOUDY    63  55  75 CALM      30.23R
ELLSWORTH AFB  CLOUDY    71  67  88 SE7       30.08S
PHILIP         CLOUDY    73  70  90 CALM      30.04R
PINE RIDGE     CLOUDY    68  67  96 NW8       30.06F
SPEARFISH      FAIR      73  59  60 SE9       30.10S
WINNER         FAIR      75  68  78 SE5       30.02R
$$

SDZ004>011-016>023-039-040-201100-
NORTHEAST SOUTH DAKOTA

CITY           SKY/WX    TMP DP  RH WIND       PRES   REMARKS
ABERDEEN       FOG       61  61 100 CALM      29.99R VSB 1/4
WATERTOWN      CLOUDY    63  63 100 CALM      30.00S FOG
BROOKINGS      MOCLDY    69  68  96 NE3       30.00S
SISSETON         N/A     61  60  97 S3        29.97R
$$

SDZ017-020-022-023-036>040-048>070-201100-
SOUTHEAST SOUTH DAKOTA

CITY           SKY/WX    TMP DP  RH WIND       PRES   REMARKS
SIOUX FALLS    CLOUDY    70  69  97 N8        29.97R
HURON          CLOUDY    69  69 100 N3        29.98S FOG
CHAMBERLAIN    CLOUDY    74  71  91 NE3       30.00R
MITCHELL       CLOUDY    72  71  97 CALM      29.99R
YANKTON        MOCLDY    75  70  84 NE6       29.97R
$$

ABBREVIATIONS USED IN REMARKS
   TC - TEMPERATURE IN CELSIUS
  WCI - WIND CHILL INDEX
   HX - HEAT INDEX
  VSB - VISIBILITY




USA.gov is the U.S. government's official web portal to all federal, state and local government web resources and services.